FW8542 Weather Reports


Display with metric or nautical units.
time (UTC)temp
F
wind
direction
speed
MPH
gust
MPH
rain 1hr
in
rain 24hr
in
rain mn
in
humidity
%
barometer
mb
20260502163605 64 323 0.0 3.0 0.00 0.00 0.00 57 1006.8
20260502162726 64 307 1.0 3.0 0.00 0.00 0.00 58 1006.9
20260502161805 64 319 1.0 4.0 0.00 0.00 0.00 58 1006.9
20260502160905 64 322 1.0 3.0 0.00 0.00 0.00 59 1007.0
20260502151826 64 276 2.0 7.0 0.00 0.00 0.00 56 1007.6
20260502150926 65 313 1.0 5.0 0.00 0.00 0.00 58 1007.6
20260502123604 65 324 2.0 8.0 0.00 0.00 0.00 60 1008.5
20260502122704 65 318 2.0 6.0 0.00 0.00 0.00 57 1008.6
20260502121804 66 308 1.0 7.0 0.00 0.00 0.00 57 1008.5
20260502120904 64 330 2.0 8.0 0.00 0.00 0.00 62 1008.4
20260502115404 64 317 2.0 5.0 0.00 0.00 0.00 61 1008.5
20260502114504 64 301 2.0 8.0 0.00 0.00 0.00 59 1008.5
20260502113604 63 301 1.0 4.0 0.00 0.00 0.00 63 1008.5
20260502112705 62 301 1.0 4.0 0.00 0.00 0.00 63 1008.7
20260502111804 61 303 1.0 6.0 0.00 0.00 0.00 64 1008.7
20260502110904 61 293 2.0 6.0 0.00 0.00 0.00 64 1008.8
20260502110004 61 292 2.0 7.0 0.00 0.00 0.00 61 1008.9
20260502105404 63 283 2.0 7.0 0.00 0.00 0.00 62 1008.8
20260502104504 63 262 2.0 9.0 0.00 0.00 0.00 61 1008.8
20260502103604 62 271 2.0 7.0 0.00 0.00 0.00 65 1008.7
20260502102726 60 313 2.0 7.0 0.00 0.00 0.00 65 1008.7
20260502101804 63 307 2.0 6.0 0.00 0.00 0.00 61 1008.8
20260502100904 64 294 2.0 5.0 0.00 0.00 0.00 62 1008.8
20260502090904 60 298 2.0 9.0 0.00 0.00 0.00 67 1009.2
20260502070903 56 303 1.0 5.0 0.00 0.00 0.00 75 1009.2
20260502070005 56 233 1.0 3.0 0.00 0.00 0.00 77 1009.2
20260502065403 55 221 1.0 3.0 0.00 0.00 0.00 78 1009.2
20260502064504 54 206 1.0 3.0 0.00 0.00 0.00 80 1009.4
20260502063603 53 250 0.0 3.0 0.00 0.00 0.00 80 1009.3
20260502062704 52 202 1.0 3.0 0.00 0.00 0.00 82 1009.3
20260502061803 51 179 0.0 3.0 0.00 0.00 0.00 83 1009.3
20260502060903 50 0 0.0 0.0 0.00 0.00 0.00 83 1009.3
20260502060003 50 0 0.0 0.0 0.00 0.00 0.00 83 1009.3
20260502055403 49 0 0.0 0.0 0.00 0.00 0.00 83 1009.3
20260502054524 49 0 0.0 0.0 0.00 0.00 0.00 82 1009.4
20260502053603 50 0 0.0 0.0 0.00 0.00 0.00 82 1009.4
20260502052725 50 0 0.0 0.0 0.00 0.00 0.00 83 1009.5
20260502051803 50 0 0.0 0.0 0.00 0.00 0.00 83 1009.5
20260502050924 49 0 0.0 0.0 0.00 0.00 0.00 83 1009.5
20260502050024 49 0 0.0 0.0 0.00 0.00 0.00 83 1009.4
20260502045403 49 0 0.0 0.0 0.00 0.00 0.00 83 1009.5
20260502044504 49 0 0.0 0.0 0.00 0.00 0.00 84 1009.4
20260502043603 49 0 0.0 0.0 0.00 0.00 0.00 83 1009.4
20260502042705 49 0 0.0 0.0 0.00 0.00 0.00 83 1009.4
20260502041805 49 0 0.0 0.0 0.00 0.00 0.00 82 1009.4
20260502040926 50 0 0.0 0.0 0.00 0.00 0.00 82 1009.5
20260502040027 50 0 0.0 0.0 0.00 0.00 0.00 82 1009.5
20260502035405 50 0 0.0 0.0 0.00 0.00 0.00 82 1009.4
20260502034505 50 0 0.0 0.0 0.00 0.00 0.00 81 1009.5
20260502033626 51 206 0.0 2.0 0.00 0.00 0.00 81 1009.6
20260502032705 51 0 0.0 0.0 0.00 0.00 0.00 80 1009.6
20260502031805 51 0 0.0 0.0 0.00 0.00 0.00 80 1009.5
20260502030905 51 0 0.0 0.0 0.00 0.00 0.00 80 1009.5
20260502030005 51 325 0.0 2.0 0.00 0.00 0.00 81 1009.6
20260502025405 51 307 0.0 2.0 0.00 0.00 0.00 81 1009.7
20260502024505 51 319 0.0 3.0 0.00 0.00 0.00 81 1009.6
20260502023605 50 311 0.0 3.0 0.00 0.00 0.00 81 1009.7
20260502022705 51 328 0.0 2.0 0.00 0.00 0.00 80 1009.8
20260502021805 51 326 0.0 3.0 0.00 0.00 0.00 80 1009.9
20260502020927 51 311 0.0 2.0 0.00 0.00 0.00 80 1010.0
20260502020005 51 320 0.0 2.0 0.00 0.00 0.00 80 1010.1
20260502015405 52 322 0.0 2.0 0.00 0.00 0.00 80 1010.1
20260502014526 52 0 0.0 0.0 0.00 0.00 0.00 79 1010.1
20260502013605 52 0 0.0 0.0 0.00 0.00 0.00 78 1010.2
20260502012705 52 331 0.0 4.0 0.00 0.00 0.00 78 1010.3
20260502011826 53 309 0.0 3.0 0.00 0.00 0.00 78 1010.3
20260502010905 53 318 1.0 4.0 0.00 0.00 0.00 79 1010.4
20260502010026 53 324 1.0 5.0 0.00 0.00 0.00 79 1010.5
20260502005405 53 321 0.0 5.0 0.00 0.00 0.00 79 1010.5
20260502004527 53 335 0.0 1.0 0.00 0.00 0.00 79 1010.7
20260502003626 53 0 0.0 0.0 0.00 0.00 0.00 80 1010.6
20260502002726 54 0 0.0 0.0 0.00 0.00 0.00 81 1010.6
20260502001805 54 0 0.0 0.0 0.00 0.00 0.00 81 1010.6
20260502000905 54 0 0.0 0.0 0.00 0.00 0.00 81 1010.6
20260502000005 54 300 0.0 1.0 0.00 0.00 0.00 81 1010.7
20260501235406 54 300 0.0 1.0 0.00 0.00 0.00 81 1010.7
20260501234505 54 328 0.0 1.0 0.00 0.00 0.00 81 1010.8
20260501233605 54 321 0.0 1.0 0.00 0.00 0.00 82 1010.7
20260501232726 55 318 0.0 1.0 0.00 0.00 0.00 81 1010.8
20260501231804 55 316 0.0 2.0 0.00 0.00 0.00 80 1010.7
20260501230904 55 316 0.0 2.0 0.00 0.00 0.00 80 1010.8
20260501230005 55 327 0.0 5.0 0.00 0.00 0.00 79 1010.9
20260501225404 56 328 1.0 5.0 0.00 0.00 0.00 79 1011.0
20260501224505 56 322 0.0 5.0 0.00 0.00 0.00 80 1010.7
20260501223605 56 318 1.0 3.0 0.00 0.00 0.00 80 1010.7
20260501222705 56 324 0.0 3.0 0.00 0.00 0.00 80 1010.8
20260501221804 56 315 0.0 3.0 0.00 0.00 0.00 79 1010.8
20260501220905 56 329 1.0 5.0 0.00 0.00 0.00 79 1010.8
20260501220025 56 320 1.0 5.0 0.00 0.00 0.00 78 1010.7
20260501215404 56 319 1.0 4.0 0.00 0.00 0.00 78 1010.8
20260501214504 56 315 1.0 4.0 0.00 0.00 0.00 77 1010.9
20260501213604 57 317 0.0 3.0 0.00 0.00 0.00 76 1010.8
20260501212704 57 319 1.0 5.0 0.00 0.00 0.00 75 1010.8
20260501211804 57 323 1.0 5.0 0.00 0.00 0.00 74 1011.0
20260501210904 57 317 0.0 4.0 0.00 0.00 0.00 72 1011.0
20260501210004 57 317 0.0 2.0 0.00 0.00 0.00 72 1011.1
20260501205426 58 313 0.0 2.0 0.00 0.00 0.00 71 1011.0
20260501204525 58 326 1.0 3.0 0.00 0.00 0.00 71 1011.0
20260501203604 58 324 0.0 3.0 0.00 0.00 0.00 70 1011.1
20260501202725 58 339 0.0 2.0 0.00 0.00 0.00 69 1011.1
20260501201804 58 319 0.0 3.0 0.00 0.00 0.00 69 1011.1
20260501200925 58 324 0.0 3.0 0.00 0.00 0.00 68 1011.1
20260501200004 59 298 0.0 3.0 0.00 0.00 0.00 67 1011.0
20260501195425 59 316 0.0 2.0 0.00 0.00 0.00 67 1010.9
20260501194504 59 320 1.0 8.0 0.00 0.00 0.00 66 1010.7
20260501193604 59 325 1.0 7.0 0.00 0.00 0.00 65 1010.7
20260501192704 59 319 1.0 5.0 0.00 0.00 0.00 64 1010.6
20260501191804 60 312 1.0 4.0 0.00 0.00 0.00 63 1010.5
20260501190925 60 319 1.0 4.0 0.00 0.00 0.00 62 1010.4
20260501190004 61 318 2.0 7.0 0.00 0.00 0.00 61 1010.5
20260501185404 62 318 1.0 7.0 0.00 0.00 0.00 60 1010.5
20260501184504 62 322 1.0 6.0 0.00 0.00 0.00 59 1010.4
20260501183625 63 318 1.0 4.0 0.00 0.00 0.00 59 1010.2
20260501182704 64 313 1.0 5.0 0.00 0.00 0.00 60 1010.2
20260501181804 64 311 1.0 4.0 0.00 0.00 0.00 59 1010.2
20260501180925 65 310 1.0 3.0 0.00 0.00 0.00 59 1010.2
20260501180004 66 327 1.0 5.0 0.00 0.00 0.00 59 1010.2
20260501175425 66 321 1.0 4.0 0.00 0.00 0.00 59 1010.2
20260501174525 67 321 1.0 4.0 0.00 0.00 0.00 59 1010.2
20260501173605 68 322 1.0 4.0 0.00 0.00 0.00 59 1010.2
20260501172704 69 321 1.0 6.0 0.00 0.00 0.00 58 1010.1